Regional Weather Roundup
Issued by NWS Glasgow, MT

Home | Current Version | Previous Version | Text Only | Print | Product List | Glossary On
Versions: 1 2 3 4 5 6 7 8 9 10 11 12 13 14 15 16 17 18 19 20 21 22 23 24 25 26 27 28 29 30 31 32 33 34 35 36 37 38 39 40 41 42 43 44 45 46 47 48 49 50
000
ASUS45 KGGW 240515
RWRGGW
HOURLY REGIONAL WEATHER ROUNDUP FOR NORTHEAST MONTANA
NATIONAL WEATHER SERVICE GLASGOW MONTANA
1000 PM MST THU FEB 23 2017

NOTE: "FAIR" INDICATES FEW OR NO CLOUDS BELOW 12,000 FEET WITH NO
SIGNIFICANT WEATHER AND/OR OBSTRUCTIONS TO VISISBILITY.

NORTHEAST MONTANA


CITY           SKY/WX    TMP DP  RH WIND       PRES   REMARKS
GLASGOW        CLOUDY    25  19  78 SE8       30.11S
PLENTYWOOD       N/A     25  17  72 W2          N/A
WOLF POINT     CLOUDY    27  19  72 E8        30.14F
JORDAN           N/A     27  23  85 E10       30.07R
WINNETT          N/A     28  27  96 E3          N/A
SIDNEY         CLOUDY    25  18  74 E6        30.15S
GLENDIVE       FLURRIES  25  23  93 NE10      30.11S
MALTA            N/A     28  26  92 E5          N/A
SCOBEY           N/A     25  13  60 CALM      30.09S

FORT PECK REPORTS


CITY           SKY/WX    TMP DP  RH WIND       PRES   REMARKS
FORT PECK        N/A     25  21  85 E9          N/A
THE PINES        N/A     24  21  88 CALM        N/A

SOUTHEAST MONTANA


CITY           SKY/WX    TMP DP  RH WIND       PRES   REMARKS
BILLINGS       FLURRIES  26  24  92 NE13      29.97F
MILES CITY     CLOUDY    28  24  85 NE10      30.05F
BAKER          CLOUDY    24  21  88 E8        30.06S
LIVINGSTON     LGT SNOW  22  18  85 E15       29.90S FOG

CENTRAL MONTANA


CITY           SKY/WX    TMP DP  RH WIND       PRES   REMARKS
HAVRE          CLOUDY    26  24  92 E8        30.03F
LEWISTOWN      CLOUDY    22  17  81 E12       29.96S
GREAT FALLS    CLOUDY    24  22  91 NE8       29.96F
CUT BANK       CLOUDY    23  18  81 SE12      29.95F
HELENA         CLOUDY    27  22  81 W7        29.93S
BUTTE          LGT SNOW  21  17  84 W6        29.85R FOG
BOZEMAN        CLOUDY    26  16  65 N7        29.89R

WESTERN MONTANA


CITY           SKY/WX    TMP DP  RH WIND       PRES   REMARKS
MISSOULA       MOCLDY    30  23  75 NW8       29.96S
KALISPELL      NOT AVBL

NORTH DAKOTA


CITY           SKY/WX    TMP DP  RH WIND       PRES   REMARKS
WILLISTON      CLEAR     12   9  87 CALM      30.16S
DICKINSON      CLOUDY    12   8  84 N5        30.08R
MINOT          MOCLDY    20  15  81 SW7       30.13S
BISMARCK       PTCLDY    19  14  81 N9        30.13S

SOUTHERN SASKATCHEWAN


CITY           SKY/WX    TMP DP  RH WIND       PRES   REMARKS
REGINA         CLOUDY    27  18  69 W2        30.11F
ESTEVAN        MOCLDY    25  19  80 W7        30.13R
SWIFT CURRENT  CLOUDY    19  16  86 S6        30.06S




USA.gov is the U.S. government's official web portal to all federal, state and local government web resources and services.